When you browse on this site, cookies collect data to enhance your experience and personalize the content and advertising you see.
Visit our Privacy Policy to learn more. By continuing to use the site, you agree to this use of cookies and data.
  • In Latvia
  • List of Countries
  • For 7 days
  • Water Temperature
  • Weather Map
  • Weather Widgets
  • user-avatar
    Login

    Hourly Weather Korenevo

    Today, 23 October, Wednesday

    Time Temperature Precipitation Wind Pressure Humidity
    00:00 +10°C° 0.1 mm 4 mps 751 mmHg 89%
    01:00 +11°C° 0 mm 4 mps 750 mmHg 91%
    02:00 +11°C° 0 mm 4 mps 750 mmHg 92%
    03:00 +12°C° 0 mm 4 mps 749 mmHg 94%
    04:00 +12°C° 0 mm 4 mps 749 mmHg 91%
    05:00 +12°C° 0 mm 4 mps 749 mmHg 89%
    06:00 +12°C° 0 mm 4 mps 748 mmHg 87%
    07:00 +12°C° 0.1 mm 4 mps 749 mmHg 86%
    08:00 +12°C° 0.1 mm 4 mps 749 mmHg 84%
    09:00 +12°C° 0.1 mm 5 mps 749 mmHg 83%
    10:00 +12°C° 0 mm 5 mps 749 mmHg 80%
    11:00 +12°C° 0 mm 4 mps 749 mmHg 76%
    12:00 +12°C° 0 mm 4 mps 749 mmHg 73%
    13:00 +12°C° 0 mm 4 mps 749 mmHg 71%
    14:00 +13°C° 0 mm 4 mps 749 mmHg 69%
    15:00 +13°C° 0 mm 4 mps 750 mmHg 67%
    16:00 +12°C° 0 mm 4 mps 750 mmHg 70%
    17:00 +11°C° 0 mm 3 mps 750 mmHg 74%
    18:00 +11°C° 0 mm 3 mps 750 mmHg 77%
    19:00 +10°C° 0 mm 3 mps 750 mmHg 77%
    20:00 +10°C° 0 mm 3 mps 751 mmHg 78%
    21:00 +10°C° 0 mm 2 mps 751 mmHg 78%
    22:00 +10°C° 0 mm 2 mps 751 mmHg 79%
    23:00 +10°C° 0 mm 2 mps 751 mmHg 79%

    Tomorrow, 24 October, Thursday

    Time Temperature Precipitation Wind Pressure Humidity
    00:00 +10°C° 0 mm 2 mps 751 mmHg 79%
    01:00 +10°C° 0 mm 2 mps 751 mmHg 81%
    02:00 +10°C° 0 mm 2 mps 752 mmHg 82%
    03:00 +9°C° 0 mm 2 mps 752 mmHg 83%
    04:00 +9°C° 0 mm 2 mps 752 mmHg 84%
    05:00 +9°C° 0 mm 2 mps 752 mmHg 85%
    06:00 +10°C° 0 mm 1 mps 752 mmHg 85%
    07:00 +10°C° 0 mm 1 mps 752 mmHg 85%
    08:00 +10°C° 0 mm 1 mps 753 mmHg 85%
    09:00 +10°C° 0 mm 1 mps 753 mmHg 85%
    10:00 +11°C° 0 mm 1 mps 753 mmHg 85%
    11:00 +11°C° 0 mm 1 mps 753 mmHg 85%
    12:00 +11°C° 0 mm 1 mps 753 mmHg 85%
    13:00 +11°C° 0.4 mm 1 mps 753 mmHg 87%
    14:00 +10°C° 0.4 mm 1 mps 753 mmHg 89%
    15:00 +10°C° 0.4 mm 1 mps 753 mmHg 91%
    16:00 +10°C° 0.5 mm 1 mps 753 mmHg 92%
    17:00 +10°C° 0.5 mm 1 mps 753 mmHg 93%
    18:00 +10°C° 0.5 mm 1 mps 753 mmHg 93%
    19:00 +10°C° 0 mm 1 mps 754 mmHg 93%
    20:00 +10°C° 0 mm 1 mps 754 mmHg 92%
    21:00 +10°C° 0 mm 1 mps 754 mmHg 91%
    22:00 +10°C° 0 mm 1 mps 754 mmHg 92%
    23:00 +10°C° 0 mm 1 mps 754 mmHg 92%

    Day after tomorrow, 25 October, Friday

    Time Temperature Precipitation Wind Pressure Humidity
    00:00 +9°C° 0 mm 1 mps 754 mmHg 92%
    01:00 +9°C° 0 mm 1 mps 754 mmHg 92%
    02:00 +9°C° 0 mm 1 mps 754 mmHg 93%
    03:00 +8°C° 0 mm 1 mps 754 mmHg 93%
    04:00 +8°C° 0 mm 1 mps 754 mmHg 93%
    05:00 +8°C° 0 mm 1 mps 754 mmHg 93%
    06:00 +7°C° 0 mm 1 mps 754 mmHg 93%
    07:00 +8°C° 0 mm 1 mps 754 mmHg 91%
    08:00 +8°C° 0 mm 1 mps 754 mmHg 89%
    09:00 +8°C° 0 mm 1 mps 755 mmHg 88%
    10:00 +9°C° 0 mm 1 mps 755 mmHg 83%
    11:00 +10°C° 0 mm 1 mps 754 mmHg 78%
    12:00 +10°C° 0 mm 2 mps 754 mmHg 73%
    13:00 +12°C° 0 mm 2 mps 754 mmHg 72%
    14:00 +12°C° 0 mm 2 mps 754 mmHg 71%
    15:00 +11°C° 0 mm 3 mps 754 mmHg 71%
    16:00 +10°C° 0 mm 3 mps 753 mmHg 75%
    17:00 +9°C° 0 mm 3 mps 753 mmHg 80%
    18:00 +8°C° 0 mm 2 mps 753 mmHg 84%
    19:00 +8°C° 0 mm 3 mps 753 mmHg 85%
    20:00 +8°C° 0 mm 3 mps 753 mmHg 87%
    21:00 +7°C° 0 mm 3 mps 752 mmHg 88%
    22:00 +7°C° 0 mm 3 mps 752 mmHg 87%
    23:00 +6°C° 0 mm 4 mps 751 mmHg 87%

    26 October, Saturday

    Time Temperature Precipitation Wind Pressure Humidity
    00:00 +6°C° 0 mm 4 mps 751 mmHg 86%
    01:00 +6°C° 0 mm 4 mps 751 mmHg 87%
    02:00 +6°C° 0 mm 4 mps 750 mmHg 88%
    03:00 +6°C° 0 mm 4 mps 750 mmHg 89%
    04:00 +6°C° 0 mm 4 mps 750 mmHg 89%
    05:00 +6°C° 0 mm 4 mps 750 mmHg 89%
    06:00 +6°C° 0 mm 4 mps 750 mmHg 90%
    07:00 +6°C° 0 mm 4 mps 750 mmHg 89%
    08:00 +7°C° 0 mm 4 mps 750 mmHg 89%
    09:00 +8°C° 0 mm 3 mps 749 mmHg 88%
    10:00 +9°C° 0 mm 3 mps 750 mmHg 85%
    11:00 +10°C° 0 mm 4 mps 750 mmHg 83%
    12:00 +11°C° 0 mm 4 mps 750 mmHg 80%
    13:00 +11°C° 0 mm 4 mps 750 mmHg 79%
    14:00 +11°C° 0 mm 4 mps 750 mmHg 78%
    15:00 +12°C° 0 mm 4 mps 750 mmHg 77%
    16:00 +11°C° 0 mm 3 mps 750 mmHg 80%
    17:00 +10°C° 0 mm 3 mps 749 mmHg 83%
    18:00 +9°C° 0 mm 3 mps 749 mmHg 86%
    19:00 +8°C° 0 mm 3 mps 749 mmHg 87%
    20:00 +8°C° 0 mm 3 mps 749 mmHg 88%
    21:00 +7°C° 0 mm 3 mps 749 mmHg 89%
    22:00 +7°C° 0 mm 3 mps 748 mmHg 88%
    23:00 +7°C° 0 mm 3 mps 748 mmHg 86%

    27 October, Sunday

    Time Temperature Precipitation Wind Pressure Humidity
    00:00 +6°C° 0 mm 4 mps 747 mmHg 84%
    01:00 +7°C° 0 mm 4 mps 747 mmHg 82%
    02:00 +7°C° 0 mm 4 mps 746 mmHg 81%
    03:00 +7°C° 0 mm 5 mps 746 mmHg 79%
    04:00 +7°C° 0 mm 5 mps 745 mmHg 79%
    05:00 +7°C° 0 mm 5 mps 745 mmHg 80%
    06:00 +7°C° 0 mm 5 mps 744 mmHg 80%
    07:00 +7°C° 0 mm 5 mps 744 mmHg 81%
    08:00 +8°C° 0 mm 6 mps 743 mmHg 82%
    09:00 +8°C° 0 mm 6 mps 743 mmHg 83%
    10:00 +9°C° 0 mm 6 mps 742 mmHg 81%
    11:00 +10°C° 0 mm 6 mps 742 mmHg 80%
    12:00 +11°C° 0 mm 6 mps 741 mmHg 78%
    13:00 +11°C° 0 mm 6 mps 741 mmHg 78%
    14:00 +11°C° 0 mm 6 mps 740 mmHg 79%
    15:00 +11°C° 0 mm 6 mps 739 mmHg 79%
    16:00 +12°C° 0.1 mm 5 mps 739 mmHg 80%
    17:00 +12°C° 0.1 mm 5 mps 739 mmHg 82%
    18:00 +12°C° 0.1 mm 5 mps 738 mmHg 83%
    19:00 +10°C° 1.4 mm 5 mps 738 mmHg 84%
    20:00 +8°C° 1.4 mm 6 mps 738 mmHg 84%
    21:00 +6°C° 1.4 mm 7 mps 738 mmHg 85%
    22:00 +7°C° 0.2 mm 6 mps 739 mmHg 81%
    23:00 +5°C° 0.2 mm 6 mps 739 mmHg 76%

    28 October, Monday

    Time Temperature Precipitation Wind Pressure Humidity
    00:00 +6°C° 0.2 mm 5 mps 740 mmHg 72%
    01:00 +5°C° 0 mm 5 mps 740 mmHg 74%
    02:00 +5°C° 0 mm 5 mps 740 mmHg 76%
    03:00 +4°C° 0 mm 4 mps 741 mmHg 77%
    04:00 +3°C° 0 mm 5 mps 740 mmHg 78%
    05:00 +3°C° 0 mm 5 mps 740 mmHg 80%
    06:00 +3°C° 0 mm 5 mps 740 mmHg 81%
    07:00 +5°C° 0 mm 5 mps 740 mmHg 79%
    08:00 +4°C° 0 mm 6 mps 740 mmHg 78%
    09:00 +4°C° 0 mm 6 mps 740 mmHg 76%
    10:00 +5°C° 0 mm 6 mps 739 mmHg 76%
    11:00 +5°C° 0 mm 6 mps 739 mmHg 75%
    12:00 +5°C° 0 mm 6 mps 739 mmHg 75%
    13:00 +5°C° 0.2 mm 6 mps 739 mmHg 74%
    14:00 +5°C° 0.2 mm 6 mps 739 mmHg 73%
    15:00 +7°C° 0.2 mm 6 mps 739 mmHg 73%
    16:00 +6°C° 0.3 mm 5 mps 739 mmHg 76%
    17:00 +5°C° 0.3 mm 4 mps 739 mmHg 79%
    18:00 +5°C° 0.3 mm 4 mps 739 mmHg 82%
    19:00 +5°C° 0.1 mm 3 mps 739 mmHg 82%
    20:00 +4°C° 0.1 mm 3 mps 739 mmHg 83%
    21:00 +4°C° 0.1 mm 3 mps 738 mmHg 83%
    22:00 +4°C° 0 mm 3 mps 738 mmHg 84%
    23:00 +4°C° 0 mm 3 mps 738 mmHg 85%

    29 October, Tuesday

    Time Temperature Precipitation Wind Pressure Humidity
    00:00 +3°C° 0 mm 3 mps 738 mmHg 87%
    01:00 +3°C° 0.1 mm 3 mps 738 mmHg 87%
    02:00 +3°C° 0.1 mm 3 mps 738 mmHg 86%
    03:00 +3°C° 0.1 mm 3 mps 738 mmHg 86%
    04:00 +3°C° 0.1 mm 3 mps 738 mmHg 86%
    05:00 +3°C° 0.1 mm 3 mps 737 mmHg 87%
    06:00 +4°C° 0.1 mm 2 mps 737 mmHg 87%
    07:00 +3°C° 0.2 mm 3 mps 737 mmHg 88%
    08:00 +2°C° 0.2 mm 3 mps 737 mmHg 90%
    09:00 +1°C° 0.2 mm 4 mps 737 mmHg 91%
    10:00 +1°C° 0.4 mm 4 mps 738 mmHg 92%
    11:00 0°C° 0.4 mm 4 mps 738 mmHg 93%
    12:00 0°C° 0.4 mm 4 mps 738 mmHg 94%
    13:00 0°C° 0.6 mm 4 mps 738 mmHg 94%
    14:00 +1°C° 0.6 mm 3 mps 739 mmHg 94%
    15:00 0°C° 0.6 mm 3 mps 739 mmHg 95%
    16:00 -1°C° 0.8 mm 4 mps 739 mmHg 95%
    17:00 -1°C° 0.8 mm 5 mps 740 mmHg 95%
    18:00 -1°C° 0.8 mm 5 mps 740 mmHg 95%
    19:00 -3°C° 0.4 mm 6 mps 741 mmHg 93%
    20:00 -3°C° 0.4 mm 7 mps 741 mmHg 91%
    21:00 -3°C° 0.4 mm 7 mps 742 mmHg 89%
    22:00 -4°C° 0.1 mm 7 mps 742 mmHg 86%
    23:00 -4°C° 0.1 mm 7 mps 743 mmHg 83%
    Show more